Weather History for Creston, IA

Change the Weather History Date:

Wednesday, October 30, 2013

  Actual Average Record
Temperature  
Mean Temperature 55 °F -  
Max Temperature 60 °F 56 °F 76 °F (1987)
Min Temperature 50 °F 38 °F 20 °F (1991)
Degree Days  
Heating Degree Days 10    
Growing Degree Days 5 (Base 50)    
Moisture  
Dew Point 56 °F    
Average Humidity 100    
Maximum Humidity 100    
Minimum Humidity 94    
Precipitation  
Precipitation 0.54 in - - ()
Sea Level Pressure  
Sea Level Pressure 29.85 in    
Wind  
Wind Speed 9 mph (ESE)    
Max Wind Speed 18 mph    
Max Gust Speed 26 mph    
Visibility 4 miles    
Events Fog , Rain    
Averages and records for this station are not official NWS values.
T = Trace of Precipitation, MM = Missing Value Source: NWS Daily Summary

Daily Weather History Graph

Daily Weather History Graph

Search for Another Location

Airport:

Trip Planner

Search our weather history database for the weather conditions in past years. The results will help you decide how hot, cold, wet, or windy it might be!

Date:

Astronomy

Oct. 30, 2013 Rise Set
Actual Time 7:46 AM CDT 6:15 PM CDT
Civil Twilight 7:17 AM CDT 6:43 PM CDT
Nautical Twilight 6:45 AM CDT 7:16 PM CDT
Astronomical Twilight 6:13 AM CDT 7:48 PM CDT
Moon 3:33 AM CDT (10/30) 4:02 PM CDT (10/30)
Length of Visible Light 11h 25m
Length of Day
10h 29m
Waning Crescent, 17% of the Moon is Illuminated
Oct 30
Waning Crescent
Nov 3
New
Nov 9
First Quarter
Nov 17
Full
Nov 25
Last Quarter

Hourly Weather History & Observations

Time (CDT) Temp. Dew Point Humidity Pressure Visibility Wind Dir Wind Speed Gust Speed Precip Events Conditions
12:15 AM 51.8 °F 51.8 °F 100% 29.99 in 1.0 mi SE 10.4 mph - N/A   Overcast
12:35 AM 51.8 °F 51.8 °F 100% 29.98 in 1.0 mi SE 9.2 mph - N/A   Overcast
12:55 AM 51.8 °F 51.8 °F 100% 29.98 in 1.0 mi SE 10.4 mph - N/A   Overcast
1:15 AM 51.8 °F 51.8 °F 100% 29.99 in 0.8 mi SSE 8.1 mph 13.8 mph N/A   Overcast
1:35 AM 51.8 °F 51.8 °F 100% 29.98 in 1.2 mi SE 8.1 mph - N/A   Overcast
1:55 AM 51.8 °F 51.8 °F 100% 29.97 in 0.5 mi SE 8.1 mph - 0.07 in   Overcast
2:15 AM 51.8 °F 51.8 °F 100% 29.97 in 1.0 mi SE 9.2 mph - N/A   Overcast
2:35 AM 51.8 °F 51.8 °F 100% 29.97 in 0.5 mi ESE 9.2 mph - N/A Fog Fog
2:55 AM 51.8 °F 51.8 °F 100% 29.96 in 0.2 mi ESE 9.2 mph - N/A Fog Fog
3:15 AM 51.8 °F 51.8 °F 100% 29.96 in 0.2 mi SE 10.4 mph - N/A Fog Fog
3:35 AM 51.8 °F 51.8 °F 100% 29.95 in 0.2 mi SE 8.1 mph - N/A Fog Fog
3:55 AM 53.6 °F 53.6 °F 100% 29.94 in 0.2 mi ESE 8.1 mph - N/A Rain Light Rain
4:15 AM 53.6 °F 53.6 °F 100% 29.95 in 0.2 mi ESE 5.8 mph 11.5 mph N/A Fog Fog
4:35 AM 53.6 °F 53.6 °F 100% 29.94 in 0.2 mi SE 10.4 mph - N/A Rain Light Rain
4:55 AM 53.6 °F 53.6 °F 100% 29.93 in 0.2 mi SE 9.2 mph - N/A Rain Light Rain
5:15 AM 53.6 °F 53.6 °F 100% 29.93 in 0.2 mi SE 6.9 mph - N/A   Light Drizzle
5:35 AM 53.6 °F 53.6 °F 100% 29.94 in 0.2 mi Calm Calm - N/A Fog Fog
5:55 AM 53.6 °F 53.6 °F 100% 29.94 in 0.2 mi Calm Calm - N/A Fog Fog
6:15 AM 53.6 °F 53.6 °F 100% 29.93 in 0.2 mi Calm Calm - N/A Fog Fog
6:35 AM 53.6 °F 53.6 °F 100% 29.93 in 0.2 mi SE 5.8 mph - N/A Fog Fog
6:55 AM 53.6 °F 53.6 °F 100% 29.92 in 0.2 mi SE 8.1 mph - N/A Fog Fog
7:15 AM 53.6 °F 53.6 °F 100% 29.89 in 0.2 mi SE 10.4 mph - N/A Rain Light Rain
7:35 AM 55.4 °F 55.4 °F 100% 29.89 in 0.2 mi NNW 9.2 mph - N/A Fog Fog
7:55 AM 55.4 °F 55.4 °F 100% 29.92 in 0.2 mi WNW 6.9 mph - N/A Fog Fog
8:15 AM 55.4 °F 55.4 °F 100% 29.90 in 0.2 mi Calm Calm - N/A Fog Fog
8:35 AM 55.4 °F 55.4 °F 100% 29.88 in 0.2 mi North - - N/A Fog Fog
8:55 AM 55.4 °F 55.4 °F 100% 29.88 in 0.2 mi ESE 5.8 mph - N/A Fog Fog
9:15 AM 57.2 °F 57.2 °F 100% 29.86 in 0.2 mi East 6.9 mph - N/A Fog Fog
9:35 AM 57.2 °F 57.2 °F 100% 29.85 in 0.2 mi SE 12.7 mph - N/A   Light Drizzle
9:55 AM 57.2 °F 57.2 °F 100% 29.87 in 0.2 mi ESE 8.1 mph - N/A Rain Light Rain
10:15 AM 57.2 °F 57.2 °F 100% 29.84 in 0.2 mi SE 10.4 mph - N/A Fog Fog
10:35 AM 55.4 °F 55.4 °F 100% 29.90 in 0.2 mi NNE 6.9 mph 16.1 mph N/A Rain Light Rain
10:55 AM 57.2 °F 57.2 °F 100% 29.92 in 5.0 mi Variable 6.9 mph 18.4 mph N/A   Light Drizzle
11:15 AM 57.2 °F 57.2 °F 100% 29.99 in 1.5 mi NNW 6.9 mph 19.6 mph N/A Rain Heavy Rain
11:35 AM 55.4 °F 55.4 °F 100% 29.93 in 3.0 mi NNE 16.1 mph - N/A Rain Rain
11:55 AM 55.4 °F 55.4 °F 100% 29.92 in 5.0 mi NNE 11.5 mph 18.4 mph 0.36 in Rain Light Rain
12:15 PM 55.4 °F 55.4 °F 100% 29.88 in 3.0 mi ENE 16.1 mph 21.9 mph N/A Rain Light Rain
12:35 PM 57.2 °F 57.2 °F 100% 29.84 in 10.0 mi ENE 18.4 mph 26.5 mph N/A   Scattered Clouds
12:55 PM 57.2 °F 57.2 °F 100% 29.80 in 9.0 mi ENE 16.1 mph 25.3 mph 0.10 in Rain Light Rain
1:15 PM 57.2 °F 57.2 °F 100% 29.83 in 10.0 mi NNE 10.4 mph - N/A   Mostly Cloudy
1:35 PM 57.2 °F 57.2 °F 100% 29.83 in 10.0 mi ENE 10.4 mph - N/A   Overcast
1:55 PM 59.0 °F 57.2 °F 94% 29.83 in 10.0 mi ENE 8.1 mph - N/A   Overcast
2:15 PM 59.0 °F 57.2 °F 94% 29.81 in 10.0 mi East 11.5 mph - N/A   Overcast
2:35 PM 57.2 °F 57.2 °F 100% 29.80 in 10.0 mi East 9.2 mph - N/A   Overcast
2:55 PM 59.0 °F 59.0 °F 100% 29.79 in 10.0 mi East 8.1 mph 15.0 mph N/A   Overcast
3:15 PM 59.0 °F 59.0 °F 100% 29.79 in 10.0 mi East 10.4 mph - N/A   Overcast
3:35 PM 59.0 °F 59.0 °F 100% 29.79 in 7.0 mi ESE 8.1 mph - N/A   Overcast
3:55 PM 59.0 °F 59.0 °F 100% 29.77 in 8.0 mi East 11.5 mph - N/A   Mostly Cloudy
4:15 PM 59.0 °F 59.0 °F 100% 29.77 in 10.0 mi East 10.4 mph - N/A   Overcast
4:35 PM 59.0 °F 59.0 °F 100% 29.76 in 10.0 mi ESE 11.5 mph 18.4 mph N/A   Overcast
4:55 PM 59.0 °F 59.0 °F 100% 29.75 in 10.0 mi East 8.1 mph 13.8 mph N/A   Overcast
5:15 PM 59.0 °F 59.0 °F 100% 29.76 in 10.0 mi ESE 8.1 mph - N/A   Overcast
5:35 PM 59.0 °F 59.0 °F 100% 29.74 in 10.0 mi ESE 8.1 mph - N/A   Overcast
5:55 PM 59.0 °F 59.0 °F 100% 29.74 in 10.0 mi ESE 9.2 mph - N/A   Overcast
6:15 PM 59.0 °F 59.0 °F 100% 29.73 in 10.0 mi ESE 9.2 mph - N/A   Overcast
7:55 PM 59.0 °F 59.0 °F 100% 29.72 in 7.0 mi SSE 5.8 mph - N/A   Overcast
8:15 PM 59.0 °F 59.0 °F 100% 29.72 in 7.0 mi SSE 3.5 mph - N/A   Overcast
8:35 PM 60.8 °F 60.8 °F 100% 29.71 in 5.0 mi South 5.8 mph - N/A   Overcast
8:55 PM 60.8 °F 60.8 °F 100% 29.70 in 10.0 mi South 10.4 mph - N/A   Overcast
9:15 PM 60.8 °F 60.8 °F 100% 29.69 in 5.0 mi South 10.4 mph - N/A   Overcast
9:35 PM 60.8 °F 60.8 °F 100% 29.69 in 2.5 mi SSW 9.2 mph - N/A   Overcast
9:55 PM 60.8 °F 60.8 °F 100% 29.69 in 2.0 mi SW 9.2 mph - N/A   Overcast
10:15 PM 60.8 °F 60.8 °F 100% 29.69 in 0.8 mi West 9.2 mph - N/A   Light Drizzle
10:35 PM 53.6 °F 53.6 °F 100% 29.70 in 1.8 mi NW 17.3 mph - N/A   Overcast
10:55 PM 51.8 °F 51.8 °F 100% 29.71 in 1.8 mi NW 13.8 mph 19.6 mph 0.01 in   Light Drizzle
11:15 PM 50.0 °F 50.0 °F 100% 29.71 in 1.5 mi NW 15.0 mph - N/A   Light Drizzle
11:35 PM 50.0 °F 50.0 °F 100% 29.71 in 1.8 mi NW 13.8 mph 20.7 mph N/A   Light Drizzle
11:55 PM 50.0 °F 50.0 °F 100% 29.70 in 1.5 mi NW 11.5 mph 18.4 mph N/A   Light Drizzle